AirNav   Everest Fuels
 
 398 users online  

N05 Hackettstown Airport
Hackettstown, New Jersey, USA

GOING TO HACKETTSTOWN?


FAA INFORMATION EFFECTIVE 05 DECEMBER 2019

Location

FAA Identifier: N05
Lat/Long: 40-49-12.3570N 074-51-18.6020W
40-49.205950N 074-51.310033W
40.8200992,-74.8551672
(estimated)
Elevation: 670 ft. / 204 m (estimated)
Variation: 12W (1985)
From city: 3 miles SW of HACKETTSTOWN, NJ
Time zone: UTC -5 (UTC -4 during Daylight Saving Time)
Zip code: 07840

Airport Operations

Airport use: Open to the public
Activation date: 05/1942
Control tower: no
ARTCC: NEW YORK CENTER
FSS: MILLVILLE FLIGHT SERVICE STATION
NOTAMs facility: MIV (NOTAM-D service available)
Attendance: DAWN-DUSK
Wind indicator: yes
Segmented circle: no

Airport Communications

CTAF: 122.9
WX ASOS at 12N (12 nm NE): PHONE 917-786-7221
WX ASOS at SMQ (14 nm SE): 120.6 (908-722-2139)

Nearby radio navigation aids

VOR radial/distance  VOR name  Freq  Var
BWZr322/2.0BROADWAY VOR/DME114.2011W
STWr188/10.6STILLWATER VOR/DME109.6011W
SBJr350/15.1SOLBERG VOR/DME112.9010W
SAXr235/20.7SPARTA VORTAC115.7011W
FJCr088/27.8ALLENTOWN VORTAC117.5010W
ARDr014/34.1YARDLEY VOR/DME108.2010W
TEBr278/36.0TETERBORO VOR/DME108.4011W
HUOr210/37.3HUGUENOT VOR/DME116.1011W

 
NDB name  Hdg/Dist  Freq  Var  ID
CHATHAM297/19.925413WCAT -.-. .- -

Airport Services

Fuel available: 100LL
Parking: hangars and tiedowns
Airframe service: MINOR
Powerplant service: MINOR
Bottled oxygen: NONE
Bulk oxygen: NONE

Runway Information

Runway 5/23

Dimensions: 2200 x 50 ft. / 671 x 15 m
Surface: asphalt, in good condition
Weight bearing capacity: 
Single wheel: 5.0
RUNWAY 5  RUNWAY 23
Traffic pattern: leftleft
Markings: nonenone
Obstructions: 27 ft. tree, 227 ft. from runway, 63 ft. right of centerline, 1:1 slope to clear
RWY 05 +51 FT TREES, 117 FT FM THLD,96 FT R.
9 ft. tree, 208 ft. from runway, 51 ft. left of centerline
RY 23 ROAD WITH 15 FT VEHICLES 45 FEET FROM RUNWAY END.

Airport Ownership and Management from official FAA records

Ownership: Privately-owned
Owner: DONALD SCHWANDA
115 AIRPORT RD
HACKETTSTOWN, NJ 07840
Phone 908-852-4664
Manager: DONALD AND JENNIFER SCHWANDA
115 AIRPORT RD
HACKETTSTOWN, NJ 07840
Phone 908-852-4664

Airport Operational Statistics

Aircraft based on the field: 24
Single engine airplanes: 24
    
Aircraft operations: avg 57/day *
79% local general aviation
21% transient general aviation
* for 12-month period ending 30 April 2019

Additional Remarks

FOR CD CTC NEW YORK APCH AT 800-645-3206.
DEER & BIRDS ON & INVOF APRT.

Instrument Procedures

There are no published instrument procedures at N05.

Some nearby airports with instrument procedures:

1N7 - Blairstown Airport (11 nm NW)
12N - Aeroflex-Andover Airport (12 nm NE)
KSMQ - Somerset Airport (14 nm SE)
N51 - Solberg-Hunterdon Airport (15 nm S)
N85 - Alexandria Airport (16 nm SW)
N40 - Sky Manor Airport (16 nm S)
N43 - Braden Airpark (18 nm W)
N53 - Stroudsburg-Pocono Airport (19 nm NW)
 
Loc | Ops | Rwys | IFR | FBO | Links
Com | Nav | Svcs | Stats | Notes
Area around N05 (Hackettstown Airport)
 
Road maps at: MapQuest Bing Google
 
Aerial photo
WARNING: Photo may not be current or correct
Aerial photo of N05 (Hackettstown Airport)
Photo by Paul Kerr.
Taken late June 2009

Do you have a better or more recent aerial photo of Hackettstown Airport that you would like to share? If so, please send us your photo.

 
Sectional chart

 
Airport distance calculator
Flying to Hackettstown Airport? Find the distance to fly.

From to N05

Sunrise and sunset
Times for 15-Dec-2019
 Local
(UTC-5)
 Zulu
(UTC)
Morning civil twilight06:4711:47
Sunrise07:1812:18
Sunset16:3121:31
Evening civil twilight17:0222:02

Current date and time
Zulu (UTC)  15-Dec-2019 06:07:59
Local (UTC-5)  15-Dec-2019 01:07:59
 
METAR
K12N 
13nm NE 
150554Z AUTO VRB05KT 04/00 A2945 RMK AO1 SLP977 T00440000 10083 20044 51029
KSMQ 
15nm SE 
ASOS 120.60 908-722-2139
150553Z AUTO 27007G20KT 220V300 10SM CLR 06/01 A2947 RMK AO2 SLP980 T00560006 10100 20056 51031
KMMU 
20nm E 
150555Z AUTO 25009G19KT 10SM SCT031 05/01 A2945 RMK AO2
KFWN 
25nm NE 
150553Z AUTO 24008KT 200V290 10SM OVC033 05/00 A2943 RMK AO2 SLP968 60000 T00500000 10094 20050 51029 $
TAF
KABE 
29nm W 
150542Z 1506/1606 27013G25KT P6SM BKN080 FM151000 27011G22KT P6SM BKN035 TEMPO 1510/1513 BKN025 FM151400 27013G24KT P6SM SCT025 FM151600 27015G28KT P6SM SCT035 FM152200 28007KT P6SM SCT200
KTTN 
32nm S 
150542Z 1506/1606 27011G20KT P6SM BKN090 FM151200 26011G20KT P6SM SCT150 FM151500 27015G28KT P6SM SCT250 FM151700 27015G28KT P6SM SCT035 FM160000 28006KT P6SM SCT200
KEWR 
32nm E 
150548Z 1506/1612 26015G24KT P6SM SCT035 BKN100 FM151400 27022G32KT P6SM BKN045 FM152200 28019G27KT P6SM SCT045 SCT250 FM160200 29015G22KT P6SM FEW250 FM160500 29010KT P6SM SCT250 FM160800 29007KT P6SM BKN120
NOTAMs
Click for the latest NOTAMs
NOTAMs are issued by the DoD/FAA and will open in a separate window not controlled by AirNav.

 

 
 

FBO, Fuel Providers, and Aircraft Ground Support

  
 Business Name 
 
 Contact 
 
 Services / Description 
 
Fuel Prices
 
Comments
  
Hackettstown Airport 908-852-4664
no information available

If you are affiliated with Hackettstown Airport and would like to show here your services, contact info, web link, logo, and more, click here
100LL
SS $5.10 
 Updated 15-Oct-2019
 
   1 read write
SS=Self service
Update Fuel Prices
 

Would you like to see your business listed on this page?

 If your business provides an interesting product or service to pilots, flight crews, aircraft, or users of the Hackettstown Airport, you should consider listing it here.  To start the listing process, click on the button below
 
Add a business
 

Other Pages about Hackettstown Airport

www.hackettstownairport.com
 
Update a link
 
Copyright © AirNav, LLC. All rights reserved. Privacy Policy  Contact